Regional Weather Roundup
Issued by NWS

Home | Current Version | Previous Version | Graphics & Text | Print | Product List | Glossary On
Versions: 1 2 3 4 5 6 7 8 9 10 11 12 13 14 15 16 17 18 19 20 21 22 23 24 25 26 27 28 29 30 31 32 33 34 35 36 37 38 39 40 41 42 43 44 45 46 47 48 49 50
000
ASUS43 KTOP 191808
RWRKS

WEATHER ROUNDUP FOR KANSAS
NATIONAL WEATHER SERVICE GOODLAND KS
100 PM CDT TUE SEP 19 2017

NOTE:  "FAIR" INDICATES FEW OR NO CLOUDS BELOW 12,000 FEET WITH NO
SIGNIFICANT WEATHER AND/OR OBSTRUCTIONS TO VISIBILITY.

KSZ001>006-013>018-027>032-041>047-191900-
NORTHWEST KANSAS

CITY           SKY/WX    TMP DP  RH WIND       PRES   REMARKS
GOODLAND       CLOUDY    87  29  12 SW16G25   29.64F
6HR MIN TEMP:  60; 6HR MAX TEMP:  88;

HAYS           SUNNY     93  61  34 S22G29    29.63F
HILL CITY      SUNNY     91  59  33 S18G26    29.62F
6HR MIN TEMP:  67; 6HR MAX TEMP:  91;

RUSSELL        SUNNY     92  60  34 S25       29.64F
6HR MIN TEMP:  68; 6HR MAX TEMP:  92;

$$

KSZ061>065-074>080-084>089-191900-
SOUTHWEST KANSAS

CITY           SKY/WX    TMP DP  RH WIND       PRES   REMARKS
DODGE CITY     SUNNY     93  53  25 S23G31    29.70F
6HR MIN TEMP:  65; 6HR MAX TEMP:  93;

ELKHART          N/A     89  38  16 SW22        N/A
GARDEN CITY    SUNNY     92  50  23 S21G29    29.69F
6HR MIN TEMP:  62; 6HR MAX TEMP:  92;

GREAT BEND     SUNNY     90  64  42 S22G29    29.68F
LIBERAL        SUNNY     90  52  27 S20       29.74F
PRATT          SUNNY     89  61  38 S23G30    29.73F
6HR MIN TEMP:  68; 6HR MAX TEMP:  89;

$$

KSZ066>073-081>083-090>101-191900-
SOUTHEAST KANSAS

CITY           SKY/WX    TMP DP  RH WIND       PRES   REMARKS
CHANUTE        SUNNY     86  70  58 S17       29.84F
6HR MIN TEMP:  66; 6HR MAX TEMP:  86;

COFFEYVILLE    CLOUDY    80  71  74 S15       29.83F
6HR MIN TEMP:  67; 6HR MAX TEMP:  83; 6HR PCP:  0.01;

HUTCHINSON     SUNNY     89  70  53 S20G29    29.72F
6HR MIN TEMP:  68; 6HR MAX TEMP:  89;

MEDICINE LODGE   N/A     90  64  42 S14G26    29.71F
NEWTON         SUNNY     89  69  51 S24G30    29.74F
WICHITA INTL   MOSUNNY   89  70  53 S24G32    29.75F
6HR MIN TEMP:  69; 6HR MAX TEMP:  90;

WICHITA JABRA  SUNNY     88  71  57 S20G26    29.76F
6HR MIN TEMP:  68; 6HR MAX TEMP:  88;

WICHITA MCCONL SUNNY     89  68  50 S22       29.76F
WINFIELD       SUNNY     88  73  61 S18G24    29.79F HX  95
6HR MIN TEMP:  70; 6HR MAX TEMP:  88;

$$

KSZ007>012-019>026-033>040-048>060-102>105-191900-
NORTHEAST KANSAS

CITY           SKY/WX    TMP DP  RH WIND       PRES   REMARKS
CONCORDIA      SUNNY     85  68  56 S23G36    29.67F
6HR MIN TEMP:  66; 6HR MAX TEMP:  85;

EMPORIA        SUNNY     87  68  52 S24G33    29.78F
6HR MIN TEMP:  67; 6HR MAX TEMP:  87;

LAWRENCE       SUNNY     85  71  63 SE17G24   29.80F
6HR MIN TEMP:  67; 6HR MAX TEMP:  85;

MANHATTAN      SUNNY     92  68  45 S24G30    29.70F HX  96
6HR MIN TEMP:  67; 6HR MAX TEMP:  92;

MARYSVILLE     SUNNY     88  68  51 S15G24    29.71F
OLATHE IND     SUNNY     83  70  64 SE14G23   29.84F
6HR MIN TEMP:  66; 6HR MAX TEMP:  83;

OLATHE EXE     SUNNY     82  71  69 S17G25    29.85F
6HR MIN TEMP:  65; 6HR MAX TEMP:  82;

SALINA         SUNNY     93  66  40 S21G35    29.69F HX  96
6HR MIN TEMP:  71; 6HR MAX TEMP:  93;

TOPEKA BILLARD SUNNY     86  71  60 S14G23    29.78F
6HR MIN TEMP:  66; 6HR MAX TEMP:  87;

TOPEKA FORBES  SUNNY     88  71  57 S15G22    29.79F
6HR MIN TEMP:  66; 6HR MAX TEMP:  88;

$$




USA.gov is the U.S. government's official web portal to all federal, state and local government web resources and services.